Probability
0 0 0 0 0 0 0 0 16 35 42 45 48 45 32 29 32 35 35 42 42 42 39 35 29 29 23 29 45 58 58 55 65 61 61 68 71 68 65 39 35 32 39 35
0 0 0 0 0 0 3 10 26 61 48 45 48 39 35 39 35 29 29 35 32 35 26 23 29 19 23 29 35 32 39 32 35 45 61 55 65 55 35 26 26 19 16 26
0 0 0 0 0 0 0 3 16 42 55 42 35 39 39 26 26 23 19 16 13 16 10 10 13 13 13 13 19 10 19 19 23 29 19 23 29 35 10 16 23 10 6 13
0 0 0 0 0 0 0 0 10 39 52 29 29 6 45 16 16 10 6 3 3 3 3 3 3 3 0 3 0 0 10 13 13 10 10 3 6 6 6 10 10 0 0 0
0 0 0 0 0 0 0 6 16 23 10 3 3 0 26 16 6 6 0 0 0 0 0 0 0 3 0 0 0 0 0 0 0 0 6 10 3 0 0 0 3 3 0 0
0 0 0 0 0 0 3 6 13 10 3 0 0 0 6 29 29 0 0 0 0 0 0 0 0 0 0 0 0 0 0 0 0 0 0 0 0 3 3 0 0 3 0 0
0 0 0 0 0 0 0 0 0 0 0 0 0 0 26 29 6 0 0 0 0 0 0 0 0 0 0 0 0 0 0 0 0 0 0 0 0 0 0 0 0 0 0 0
0 0 0 0 0 0 0 0 0 0 0 0 0 0 35 13 0 0 0 0 0 0 0 0 0 0 0 0 0 0 0 0 0 0 0 0 0 0 0 0 0 0 0 0
0 0 0 0 0 0 0 0 0 0 0 0 0 3 6 0 0 0 0 0 0 0 0 0 0 0 0 0 0 0 0 0 0 0 0 0 0 0 0 0 0 0 0 0
0 0 0 0 0 0 0 0 0 0 0 0 0 0 0 3 0 0 0 0 0 0 0 0 0 0 0 0 0 0 0 0 0 0 0 0 0 0 0 0 0 0 0 0
0 0 0 0 0 0 0 0 0 0 0 0 0 0 0 0 0 0 0 0 0 0 0 0 0 0 0 0 0 0 0 0 0 0 0 0 0 0 0 0 0 0 0 0
0 0 0 0 0 0 0 0 0 0 0 0 0 0 0 0 0 0 0 0 0 0 0 0 0 0 0 0 0 0 0 0 0 0 0 0 0 0 0 0 0 0 0 0
0 0 0 0 0 0 0 0 0 0 0 0 0 0 0 0 0 0 0 0 0 0 0 0 0 0 0 0 0 0 0 0 0 0 0 0 0 0 0 0 0 0 0 0
0 0 0 0 0 0 0 0 0 0 0 0 0 0 0 0 0 0 0 0 0 0 0 0 0 0 0 0 0 0 0 0 0 0 0 0 0 0 0 0 0 0 0 0
0 0 0 0 0 0 0 0 0 0 0 0 0 0 0 0 0 0 0 0 0 0 0 0 0 0 0 0 0 0 0 0 0 0 0 0 0 0 0 0 0 0 0 0
3 0 0 0 0 0 0 0 0 0 0 0 0 0 0 0 0 0 0 0 0 0 0 0 0 0 0 0 0 0 0 0 0 0 0 0 0 0 0 0 0 0 0 0
0 0 0 0 0 0 0 0 0 0 0 0 0 0 0 0 0 0 0 0 0 0 0 0 0 0 0 0 0 0 0 0 0 0 0 0 0 0 0 0 0 0 0 0
0 0 0 0 0 0 0 0 0 0 0 0 0 0 0 0 0 0 0 0 0 0 0 0 0 0 0 0 0 0 0 0 0 0 0 0 0 0 0 0 0 0 0 0
0 0 0 0 0 0 0 0 0 0 0 0 0 0 0 0 0 0 0 0 0 0 0 0 0 0 0 0 0 0 0 0 0 0 0 0 0 0 0 0 0 0 0 0
0 0 0 0 0 0 0 0 0 0 0 0 0 0 0 0 0 0 0 0 0 0 0 0 0 0 0 0 0 0 0 0 0 0 0 0 0 0 0 0 0 0 0 0
0 0 0 0 0 0 0 0 0 0 0 0 0 0 0 0 0 0 0 0 0 0 0 0 0 0 0 0 0 0 0 0 0 0 0 0 0 0 0 0 0 0 0 0
0 0 0 0 0 0 0 0 0 0 0 0 0 0 0 0 0 0 0 0 0 0 0 0 0 0 0 0 0 0 0 0 0 0 0 0 0 0 0 0 0 0 0 0
0 0 0 0 0 0 0 0 0 0 0 0 0 0 0 0 0 0 0 0 0 0 0 0 0 0 0 0 0 0 0 0 0 0 0 0 0 0 0 0 0 0 0 0
0 0 0 0 0 0 0 0 0 0 0 0 0 0 0 0 0 0 0 0 0 0 0 0 0 0 0 0 0 0 0 0 0 0 0 0 0 0 0 0 0 0 0 0
0 0 0 0 0 0 0 0 0 0 0 0 0 0 0 0 0 0 0 0 0 0 0 0 0 0 0 0 0 0 0 0 0 0 0 0 0 0 0 0 0 0 0 0
0 0 0 0 0 0 0 0 0 0 0 0 0 0 0 0 0 0 0 0 0 0 0 0 0 0 0 0 0 0 0 0 0 0 0 0 0 0 0 0 0 0 0 0
Height
5868 5870 5871 5870 5870 5871 5871 5872 5872 5871 5870 5869 5868 5867 5866 5866 5865 5864 5864 5864 5863 5862 5861 5860 5858 5856 5853 5850 5847 5844 5840 5837 5833 5831 5828 5825 5823 5821 5818 5816 5813 5810 5808 5805
5868 5869 5868 5867 5868 5868 5869 5870 5870 5868 5867 5866 5865 5863 5862 5861 5860 5860 5859 5858 5858 5856 5855 5853 5850 5848 5844 5841 5837 5834 5830 5826 5823 5820 5817 5815 5812 5810 5808 5806 5804 5801 5799 5796
5868 5867 5866 5866 5866 5867 5868 5868 5867 5866 5864 5862 5861 5860 5858 5857 5856 5855 5854 5853 5851 5849 5847 5845 5842 5839 5835 5831 5828 5824 5821 5817 5814 5811 5808 5805 5802 5800 5798 5796 5794 5792 5790 5788
5865 5865 5864 5865 5866 5865 5866 5865 5864 5863 5862 5861 5860 5860 5856 5854 5852 5851 5849 5847 5845 5843 5840 5837 5834 5830 5827 5823 5819 5815 5811 5808 5804 5801 5797 5794 5791 5788 5786 5784 5783 5781 5779 5778
5864 5863 5863 5863 5864 5864 5864 5863 5862 5861 5860 5859 5858 5858 5854 5851 5849 5847 5845 5842 5840 5837 5834 5830 5827 5823 5819 5814 5810 5806 5802 5797 5793 5789 5785 5782 5779 5776 5773 5771 5770 5769 5768 5767
5863 5863 5862 5862 5862 5862 5862 5861 5860 5859 5859 5858 5856 5855 5851 5848 5846 5843 5840 5837 5834 5831 5828 5824 5819 5815 5810 5805 5800 5796 5791 5787 5782 5777 5773 5769 5765 5762 5760 5757 5756 5755 5754 5754
5864 5863 5862 5862 5862 5861 5861 5861 5861 5859 5858 5856 5853 5851 5849 5845 5842 5839 5835 5832 5829 5825 5821 5816 5812 5807 5802 5796 5791 5786 5781 5776 5770 5765 5760 5756 5752 5749 5746 5744 5741 5740 5739 5739
5865 5864 5862 5861 5861 5860 5859 5859 5860 5859 5858 5855 5849 5847 5845 5841 5837 5834 5831 5827 5823 5818 5814 5809 5803 5798 5792 5787 5781 5775 5770 5764 5759 5753 5748 5743 5739 5735 5732 5730 5727 5725 5724 5724
5864 5863 5862 5860 5859 5859 5858 5856 5855 5854 5853 5851 5848 5844 5841 5837 5833 5830 5825 5821 5817 5811 5806 5800 5794 5788 5782 5776 5770 5764 5758 5752 5746 5740 5735 5730 5726 5722 5718 5715 5713 5711 5709 5708
5863 5862 5861 5859 5858 5857 5856 5854 5853 5852 5850 5848 5846 5841 5837 5832 5829 5824 5820 5815 5810 5804 5798 5792 5785 5778 5771 5765 5758 5751 5745 5739 5733 5727 5723 5718 5713 5709 5705 5702 5699 5696 5694 5692
5862 5861 5860 5858 5857 5855 5854 5852 5850 5848 5846 5845 5843 5841 5834 5829 5824 5819 5814 5809 5803 5797 5790 5783 5776 5768 5761 5754 5746 5739 5733 5727 5721 5716 5711 5706 5701 5696 5691 5687 5683 5680 5677 5675
5861 5860 5858 5857 5855 5853 5852 5850 5848 5846 5843 5840 5838 5837 5829 5824 5819 5814 5809 5803 5796 5789 5782 5774 5766 5758 5751 5743 5736 5728 5722 5716 5710 5704 5699 5693 5687 5681 5675 5670 5666 5662 5659 5656
5860 5859 5857 5856 5855 5852 5849 5847 5845 5843 5840 5837 5834 5833 5824 5820 5814 5809 5803 5796 5789 5781 5773 5765 5757 5749 5741 5733 5726 5719 5712 5705 5699 5692 5685 5678 5671 5665 5658 5652 5647 5642 5638 5635
5858 5857 5857 5856 5853 5849 5847 5845 5842 5840 5837 5833 5830 5826 5820 5814 5809 5803 5796 5789 5782 5773 5765 5756 5748 5740 5732 5724 5716 5709 5702 5695 5688 5680 5672 5664 5657 5649 5641 5634 5627 5621 5617 5614
5856 5855 5853 5851 5849 5847 5844 5842 5839 5836 5833 5829 5825 5820 5815 5809 5803 5797 5791 5783 5775 5767 5758 5749 5740 5732 5723 5715 5707 5700 5692 5685 5676 5668 5659 5650 5641 5632 5624 5615 5608 5601 5596 5592
5854 5853 5851 5849 5847 5844 5842 5839 5836 5832 5829 5825 5821 5816 5810 5805 5798 5792 5785 5777 5769 5760 5751 5742 5733 5724 5715 5706 5698 5691 5683 5674 5665 5656 5646 5636 5626 5616 5607 5598 5589 5582 5576 5571
5851 5850 5848 5847 5844 5841 5839 5836 5832 5829 5824 5821 5816 5812 5806 5800 5793 5787 5779 5771 5762 5753 5744 5734 5725 5716 5707 5698 5689 5681 5673 5664 5654 5644 5634 5623 5612 5602 5591 5581 5571 5563 5556 5551
5849 5847 5845 5843 5841 5838 5837 5832 5829 5825 5821 5816 5811 5807 5801 5795 5788 5781 5773 5765 5756 5747 5737 5727 5718 5708 5699 5690 5681 5672 5663 5653 5643 5633 5622 5611 5599 5588 5577 5566 5556 5547 5540 5534
5845 5844 5842 5840 5837 5835 5832 5828 5824 5821 5817 5812 5807 5802 5797 5790 5783 5775 5767 5758 5749 5739 5730 5719 5709 5700 5691 5682 5673 5664 5654 5644 5633 5623 5611 5600 5587 5576 5564 5553 5543 5534 5526 5520
5842 5840 5838 5835 5833 5830 5828 5824 5820 5817 5813 5808 5803 5797 5791 5785 5779 5772 5762 5753 5744 5733 5723 5713 5703 5693 5684 5675 5665 5656 5646 5635 5625 5613 5602 5589 5577 5565 5554 5543 5532 5523 5515 5509
5839 5836 5834 5831 5828 5826 5823 5819 5816 5813 5809 5802 5797 5791 5785 5779 5773 5766 5757 5748 5738 5727 5717 5707 5696 5686 5677 5668 5658 5648 5638 5628 5617 5605 5593 5581 5568 5557 5545 5534 5524 5516 5508 5501
5835 5833 5830 5827 5825 5823 5818 5814 5811 5808 5802 5797 5791 5786 5780 5774 5767 5759 5751 5741 5732 5722 5712 5701 5691 5680 5670 5661 5652 5642 5632 5621 5610 5598 5586 5574 5561 5550 5538 5528 5519 5511 5503 5496
5830 5829 5825 5824 5822 5817 5813 5809 5806 5801 5797 5792 5787 5781 5775 5769 5762 5754 5746 5736 5726 5716 5706 5696 5685 5675 5664 5654 5645 5636 5626 5615 5604 5592 5580 5568 5556 5545 5534 5524 5515 5507 5500 5494
5825 5823 5820 5817 5815 5811 5808 5804 5801 5796 5792 5787 5782 5776 5770 5764 5757 5749 5740 5731 5721 5711 5700 5690 5680 5669 5659 5649 5640 5630 5620 5610 5599 5588 5576 5564 5553 5542 5532 5522 5513 5506 5499 5493
5820 5817 5815 5812 5810 5806 5803 5799 5795 5791 5786 5782 5776 5771 5765 5759 5751 5743 5735 5725 5716 5705 5695 5685 5674 5664 5654 5645 5635 5626 5616 5606 5595 5584 5573 5562 5551 5540 5530 5521 5513 5506 5500 5494
5814 5812 5809 5807 5804 5801 5798 5794 5790 5786 5781 5776 5771 5766 5760 5753 5745 5737 5729 5720 5710 5700 5690 5680 5670 5660 5650 5641 5632 5622 5613 5603 5592 5582 5571 5560 5550 5539 5530 5521 5513 5506 5500 5495
Wind_Speed
6 5 5 7 7 8 9 8 10 14 15 17 18 20 20 21 22 22 22 22 23 25 27 29 31 34 36 39 41 43 44 44 43 43 42 41 40 39 38 37 37 35 34 33
3 5 7 6 6 6 6 7 9 12 13 15 16 17 18 18 19 20 21 23 24 26 28 30 32 35 37 39 40 41 41 40 40 40 40 40 40 40 40 39 39 37 35 34
4 8 6 5 5 5 5 6 8 10 11 11 13 13 14 14 15 16 18 20 23 25 28 30 32 34 35 36 37 38 38 38 39 40 40 41 41 41 41 41 40 38 37 35
6 6 6 5 6 4 6 7 7 8 9 11 9 11 13 14 15 17 18 20 22 24 26 28 30 32 33 34 36 37 38 39 40 42 43 43 44 45 45 44 43 41 40 38
5 5 5 6 6 5 6 6 7 8 9 10 10 11 16 15 16 18 20 21 23 25 27 29 31 32 34 36 38 40 41 42 43 45 46 47 48 48 48 47 46 45 44 42
2 2 2 3 3 5 5 7 8 9 9 10 14 12 18 17 18 20 22 24 25 27 29 31 32 34 37 39 41 42 43 45 47 48 49 50 51 51 51 50 49 48 47 46
3 2 2 2 4 6 6 7 8 9 9 13 17 15 17 18 20 22 24 25 27 28 30 32 34 36 38 40 42 43 45 46 48 49 50 51 52 52 52 52 52 51 51 50
3 4 4 4 5 7 7 7 7 8 10 14 16 15 16 18 20 22 24 26 28 30 32 34 36 38 39 41 42 44 44 45 46 48 49 49 49 49 49 49 49 50 50 51
3 5 5 5 5 6 7 7 8 9 10 10 14 15 16 19 21 23 25 27 29 31 34 36 38 40 41 42 42 43 43 43 44 44 43 43 43 43 44 45 46 48 49 50
3 4 5 5 5 5 6 7 8 8 9 10 13 18 20 21 23 25 27 29 31 33 36 38 40 41 42 42 42 42 42 41 40 39 38 39 40 41 43 44 45 47 48 50
4 4 6 6 6 7 7 8 9 10 10 12 12 18 20 22 24 26 28 30 33 35 38 40 41 42 42 42 42 41 41 39 38 38 39 40 42 44 45 46 48 48 49 50
4 5 6 7 7 8 9 10 11 12 13 14 16 20 20 23 25 27 30 33 35 37 40 42 42 42 42 42 42 41 40 39 40 40 42 43 45 47 48 49 49 50 51 52
5 6 7 9 10 10 11 11 12 13 15 16 17 21 22 24 27 30 32 35 37 40 42 42 42 43 43 42 40 39 39 39 41 42 44 46 47 48 49 50 51 52 53 53
6 6 6 7 10 12 13 14 14 15 16 17 19 21 24 27 30 33 35 37 39 42 43 43 43 44 43 41 39 38 39 40 42 44 45 47 49 50 51 51 52 52 53 53
7 7 8 9 11 13 14 15 16 16 16 18 20 22 25 28 32 34 36 39 41 43 44 44 43 44 42 40 38 38 40 42 44 45 46 48 50 50 51 51 51 51 51 51
8 9 10 11 12 14 15 16 16 17 18 19 21 23 26 29 33 35 38 40 43 44 44 44 44 44 42 40 38 39 41 43 45 46 48 49 50 50 50 50 50 50 49 49
10 11 12 14 15 16 16 16 17 18 19 21 23 25 28 31 34 37 39 42 44 45 45 45 44 43 42 40 39 40 42 44 46 47 48 49 50 49 49 49 48 47 45 44
12 13 15 16 17 16 16 17 17 18 20 22 24 27 29 32 35 38 40 43 45 46 46 45 44 43 42 41 40 41 43 45 46 47 48 50 50 49 48 47 45 42 40 39
14 16 17 17 18 18 17 17 18 19 20 23 25 27 30 33 36 39 42 45 47 47 48 47 46 44 43 41 41 42 44 45 46 47 49 50 49 47 46 44 41 39 35 33
16 16 18 18 18 18 19 18 20 21 22 24 26 28 31 34 36 39 43 45 47 48 48 47 46 45 43 42 41 43 44 46 47 48 49 49 48 46 43 41 38 35 31 29
17 17 17 18 19 20 19 20 21 24 25 27 28 30 32 35 38 40 43 45 48 48 49 48 47 46 44 42 42 43 45 46 47 48 48 48 47 45 42 39 35 32 29 26
17 18 18 18 19 21 20 21 22 24 26 28 29 31 33 36 39 42 44 46 48 49 48 48 47 45 44 43 42 43 44 46 47 47 47 47 46 43 40 37 33 30 27 23
17 18 19 19 20 21 21 22 23 25 27 28 29 31 34 36 40 43 45 47 48 49 49 48 47 46 44 43 43 43 44 45 46 46 46 45 44 42 38 34 31 27 24 20
20 19 20 20 20 21 22 23 24 26 27 28 30 32 34 37 41 43 46 47 48 49 49 48 47 45 44 42 42 43 43 45 45 45 45 44 42 40 37 33 29 26 22 18
22 20 20 20 21 22 22 24 25 26 27 28 30 33 35 39 42 45 47 48 48 49 49 48 47 45 44 42 42 42 43 44 44 44 43 42 41 39 35 32 28 24 21 17
22 22 21 21 21 22 23 24 25 27 28 29 31 34 37 40 43 45 47 48 48 48 48 48 47 45 43 41 41 41 42 43 43 43 42 41 40 38 34 31 27 23 21 17
Wind_Direction
276 273 261 263 265 258 262 262 267 273 277 277 277 278 279 278 276 276 274 273 272 273 276 278 279 281 282 284 285 286 287 287 285 286 286 285 285 284 284 285 287 288 286 283
305 270 267 274 280 281 282 280 281 285 285 284 283 282 282 281 277 276 276 275 276 278 280 281 282 284 285 286 285 286 289 287 286 286 285 285 284 284 285 286 286 286 284 284
244 259 266 264 275 291 292 278 283 295 299 299 298 296 291 291 289 288 286 285 285 285 285 285 286 287 288 288 288 289 290 289 288 287 286 286 285 284 284 284 283 282 281 279
277 275 267 259 261 267 276 285 294 304 313 311 313 305 304 302 299 297 295 294 294 293 293 293 293 293 292 292 292 292 292 291 289 288 286 285 285 284 283 281 280 279 277 276
286 280 261 249 256 269 269 293 302 306 307 306 311 305 303 307 304 303 300 299 298 298 298 297 296 296 295 295 294 293 292 291 289 288 286 285 284 283 282 280 278 276 274 272
327 313 265 248 268 280 293 304 312 314 312 302 304 303 299 307 305 303 302 301 301 301 300 299 299 298 297 296 295 294 293 291 289 288 287 286 285 284 282 281 279 276 273 270
335 323 305 284 289 297 301 312 320 316 308 292 301 300 298 302 302 303 304 304 304 303 303 303 301 300 299 298 297 295 293 291 290 288 287 285 284 282 281 279 277 275 273 270
317 302 308 302 296 297 302 299 292 289 291 295 307 307 307 304 307 308 309 310 310 309 308 307 305 304 302 301 299 297 295 293 291 289 287 286 284 282 280 278 276 274 272 269
304 300 310 307 302 299 302 302 302 309 313 315 312 317 315 314 316 316 316 316 315 314 312 311 310 308 307 305 303 301 299 297 295 292 291 289 288 286 283 280 277 275 272 269
321 319 322 323 318 315 321 325 327 328 321 319 317 319 324 325 324 323 322 320 319 318 316 315 314 312 311 310 309 307 305 304 301 299 297 295 292 289 286 283 281 278 274 271
339 336 335 338 338 337 339 339 339 336 334 330 322 316 329 328 328 327 326 325 323 321 320 319 318 317 316 315 314 313 310 308 305 302 301 299 296 293 290 286 283 279 276 272
343 347 339 340 343 343 342 342 342 339 335 333 332 327 335 333 332 331 330 329 326 325 324 323 322 321 320 319 317 315 313 311 309 306 304 302 300 297 293 290 286 282 277 273
335 344 348 339 339 342 343 343 341 337 335 337 337 331 338 336 335 335 335 333 330 329 328 326 325 324 322 320 318 316 315 314 312 310 308 306 303 300 297 293 289 285 280 274
328 333 337 320 324 333 337 339 338 336 336 337 337 336 337 338 338 338 337 335 333 332 331 329 327 326 324 322 320 318 317 317 316 314 312 310 307 304 301 296 293 288 283 276
324 327 327 327 328 329 331 334 334 333 334 335 336 337 337 338 337 338 337 336 335 334 332 330 329 328 326 323 321 319 319 319 319 318 316 314 311 308 304 300 296 292 286 279
324 327 330 330 328 326 328 328 329 331 333 335 336 336 337 337 336 338 338 338 337 336 334 332 331 330 329 326 322 321 321 322 321 320 319 317 315 313 309 305 301 296 289 282
323 326 328 326 325 324 323 327 328 329 330 332 334 334 336 337 336 338 339 339 338 337 336 334 333 333 332 329 326 325 325 325 324 323 323 321 319 316 313 309 305 302 295 286
318 321 322 321 321 323 323 323 325 326 327 329 331 332 334 336 336 338 339 339 339 338 337 336 335 335 334 332 330 329 329 329 328 327 326 324 322 320 318 315 311 306 300 290
314 316 317 319 321 319 318 320 323 326 328 327 329 331 333 336 337 338 340 340 340 339 339 338 337 337 336 335 333 333 332 332 331 330 329 328 326 325 322 320 317 312 305 295
308 311 313 316 317 316 317 322 324 326 328 329 330 332 334 337 338 339 340 340 340 340 340 339 338 338 338 336 335 335 335 335 334 333 333 332 330 329 327 325 323 319 313 303
306 308 309 311 313 312 317 321 324 327 329 331 332 334 336 337 339 340 340 340 341 341 340 340 339 339 339 338 337 337 337 337 337 337 337 336 335 334 333 330 329 327 321 314
306 307 307 307 308 310 315 319 323 326 328 330 332 334 336 337 338 339 340 340 341 341 341 341 340 340 339 339 339 339 339 340 340 340 340 340 340 339 338 337 334 333 330 324
304 305 306 307 306 308 313 317 321 324 327 329 331 334 335 336 337 338 339 340 341 341 341 341 341 341 341 340 341 341 342 342 343 343 344 344 344 344 343 342 341 340 338 334
304 307 306 305 305 307 311 315 319 323 325 328 330 333 334 335 336 338 339 340 340 341 341 342 343 343 342 342 342 343 344 345 345 346 347 347 347 348 348 347 346 346 346 344
304 308 307 305 305 307 310 314 317 321 324 326 329 332 333 334 335 337 338 339 340 341 342 342 343 344 344 343 343 344 345 347 348 348 349 349 349 350 352 351 351 352 352 351
303 306 306 305 306 307 310 314 316 319 322 325 327 330 332 333 335 337 338 340 341 341 342 343 343 344 344 345 345 346 348 349 350 351 352 352 352 353 354 354 354 354 354 354